Content
SEND FEEDBACK

Daily
Averages
Monthly
Summary
United States of America

CRESTED BUTTE, COLORADO


Home > North America > United States > Colorado
Elevation: 9277 feet     Latitude: 38 52N     Longitude: 106 58W

WEATHER
 
SELECT A DAY
Number of Records: 454,537;   Date Range: 1/1/95 - 10/18/14
 
SHARE

PRINT THIS DATA

[ ← Previous Day ]
WEATHER ALMANAC - JUNE 24, 2013
[ Next Day → ]
[ °C ]   °F
We're sorry. There is no daily almanac available for Crested Butte, Colorado on June 24, 2013.
WEATHER BY HOUR - JUNE 24, 2013
[ °C ]   °F
Local TimeTemperatureDewpointHumidityBarometerVisibilityWind DirectionWind SpeedGust SpeedPrecipitationEventsConditions
12:55 AM51.8 °F30.2 °F44 %30.13 in10.0 miNorth (10°)4.6 mphClear
1:15 AM51.8 °F30.2 °F44 %30.12 in10.0 miCalmClear
1:35 AM48.2 °F30.2 °F50 %30.12 in10.0 miNNE (20°)3.5 mphClear
1:55 AM48.2 °F32.0 °F54 %30.12 in10.0 miSSE (150°)3.5 mphClear
2:35 AM48.2 °F30.2 °F50 %30.13 in10.0 miCalmClear
2:55 AM44.6 °F30.2 °F57 %30.13 in10.0 miCalmClear
3:15 AM44.6 °F30.2 °F57 %30.14 in10.0 miCalmClear
3:35 AM44.6 °F28.4 °F53 %30.14 in10.0 miCalmClear
4:15 AM42.8 °F28.4 °F57 %30.15 in10.0 miENE (70°)4.6 mphClear
4:35 AM42.8 °F30.2 °F61 %30.16 in10.0 miCalmClear
4:55 AM42.8 °F26.6 °F53 %30.16 in10.0 miCalmClear
5:15 AM41.0 °F26.6 °F57 %30.16 in10.0 miCalmClear
5:35 AM41.0 °F28.4 °F61 %30.17 in10.0 miCalmClear
5:55 AM39.2 °F28.4 °F65 %30.18 in10.0 miCalmClear
6:15 AM39.2 °F30.2 °F70 %30.18 in10.0 miCalmClear
6:35 AM41.0 °F26.6 °F57 %30.17 in10.0 miCalmClear
6:55 AM44.6 °F26.6 °F49 %30.18 in10.0 miSE (140°)3.5 mphClear
7:15 AM42.8 °F28.4 °F57 %30.19 in10.0 miCalmClear
7:35 AM42.8 °F28.4 °F57 %30.18 in10.0 miCalmClear
7:55 AM46.4 °F30.2 °F53 %30.19 in10.0 miCalmClear
8:15 AM46.4 °F28.4 °F50 %30.20 in10.0 miCalmClear
8:35 AM48.2 °F28.4 °F46 %30.20 in10.0 miCalmClear
8:55 AM51.8 °F28.4 °F41 %30.20 in10.0 miSW (230°)3.5 mphClear
9:15 AM53.6 °F28.4 °F38 %30.20 in9.0 miCalmClear
9:35 AM55.4 °F26.6 °F33 %30.19 in10.0 miCalmClear
9:55 AM59.0 °F26.6 °F29 %30.18 in10.0 miSSE (150°)3.5 mphClear
10:15 AM60.8 °F28.4 °F29 %30.18 in10.0 miCalmClear
10:35 AM62.6 °F30.2 °F30 %30.17 in10.0 miCalmClear
11:15 AM66.2 °F26.6 °F23 %30.16 in10.0 miSW (230°)6.9 mphClear
11:35 AM68.0 °F24.8 °F20 %30.15 in10.0 miWSW (250°)5.8 mphClear
11:55 AM69.8 °F19.4 °F15 %30.15 in10.0 miWSW (250°)5.8 mphClear
12:15 PM69.8 °F17.6 °F14 %30.14 in10.0 miSW (230°)4.6 mphClear
12:35 PM71.6 °F19.4 °F14 %30.13 in10.0 miWSW (250°)6.9 mphClear
1:15 PM73.4 °F21.2 °F14 %30.11 in10.0 miWSW (240°)12.7 mph17.3 mphClear
1:35 PM73.4 °F19.4 °F13 %30.10 in10.0 miSSW (200°)9.2 mphClear
1:55 PM75.2 °F19.4 °F12 %30.10 in10.0 miWest (260°)10.4 mph17.3 mphClear
2:15 PM73.4 °F19.4 °F13 %30.09 in10.0 miWSW (240°)6.9 mphClear
2:35 PM75.2 °F21.2 °F13 %30.09 in10.0 miWest (270°)9.2 mph21.9 mphClear
2:55 PM75.2 °F19.4 °F12 %30.09 in10.0 miWSW (240°)13.8 mph19.6 mphClear
3:15 PM75.2 °F19.4 °F12 %30.09 in10.0 miWSW (250°)12.7 mph18.4 mphClear
3:35 PM77.0 °F19.4 °F12 %30.08 in10.0 miWest (270°)11.5 mph20.7 mphClear
3:55 PM77.0 °F19.4 °F12 %30.08 in10.0 miWest (270°)17.3 mph20.7 mphClear
4:15 PM75.2 °F17.6 °F11 %30.08 in10.0 miWSW (240°)12.7 mph23.0 mphClear
4:35 PM75.2 °F17.6 °F11 %30.08 in10.0 miWest (270°)12.7 mph27.6 mphClear
4:55 PM77.0 °F17.6 °F11 %30.08 in10.0 miWest (260°)15.0 mph20.7 mphClear
5:15 PM75.2 °F17.6 °F11 %30.08 in10.0 miWSW (250°)13.8 mph20.7 mphClear
5:35 PM75.2 °F17.6 °F11 %30.08 in10.0 miWSW (240°)13.8 mph20.7 mphClear
5:55 PM73.4 °F15.8 °F11 %30.09 in10.0 miWest (270°)19.6 mph26.5 mphClear
6:15 PM71.6 °F15.8 °F12 %30.09 in10.0 miWSW (250°)17.3 mph25.3 mphClear
6:35 PM73.4 °F17.6 °F12 %30.10 in10.0 miWest (270°)15.0 mph23.0 mphClear
6:55 PM71.6 °F17.6 °F13 %30.10 in10.0 miWSW (250°)12.7 mph23.0 mphClear
7:15 PM69.8 °F15.8 °F13 %30.10 in10.0 miWSW (250°)11.5 mphClear
7:35 PM69.8 °F17.6 °F14 %30.11 in10.0 miWSW (240°)5.8 mph16.1 mphClear
8:15 PM69.8 °F17.6 °F14 %30.11 in10.0 miWest (270°)11.5 mphScattered Clouds
8:35 PM68.0 °F17.6 °F15 %30.12 in10.0 miSSW (210°)4.6 mphMostly Cloudy
8:55 PM68.0 °F17.6 °F15 %30.12 in10.0 miSW (230°)4.6 mphScattered Clouds
9:15 PM68.0 °F19.4 °F16 %30.13 in10.0 miSSE (150°)4.6 mphClear
9:35 PM64.4 °F24.8 °F22 %30.14 in10.0 miSSE (150°)3.5 mphClear
9:55 PM62.6 °F21.2 °F20 %30.14 in10.0 miSE (140°)5.8 mphClear
10:15 PM62.6 °F23.0 °F22 %30.15 in10.0 miCalmClear
10:35 PM62.6 °F24.8 °F24 %30.15 in10.0 miSouth (170°)3.5 mphClear
10:55 PM60.8 °F17.6 °F19 %30.15 in10.0 miSSE (150°)6.9 mphClear
11:15 PM60.8 °F23.0 °F23 %30.16 in10.0 miCalmScattered Clouds
11:35 PM57.2 °F28.4 °F33 %30.16 in10.0 miNorth (10°)3.5 mphMostly Cloudy
11:55 PM57.2 °F26.6 °F31 %30.16 in10.0 miEast (80°)5.8 mphMostly Cloudy
Hourly data recorded from KGUC, located miles away from Crested Butte, Colorado







STORIES FROM OUR PARTNERS